KZR111 UAAA-UBBB

Flight info

Callsign KZR111
Flight time 3h 31m
Altitude 36000
Route TIPSA1A TIPSA L143 TADEN/K0843F380 L143 POGON/N0454F380 A477 BABUM A909 TUGTA B701 KRS A480 DUKAN L850 ABROL
Aircraft A21N/M-SDE2E3FGHIRWXY/LB1

Departure

Time 2026-04-23 16:56
Airport Almaty International Airport (UAAA)

Arrival

Time 2026-04-23 20:27
Airport Heydar Aliyev International Airport (UBBB)
Time Latitude Longitude Altitude Speed Heading
2026-04-23 16:27 43.34841 77.01383 2232 ft 0 kts 245°
2026-04-23 16:39 43.34847 77.01399 2232 ft 4 kts 228°
2026-04-23 16:39 43.34866 77.01415 2232 ft 0 kts 180°
2026-04-23 16:39 43.34881 77.01422 2232 ft 2 kts 226°
2026-04-23 16:40 43.34887 77.01431 2232 ft 3 kts 228°
2026-04-23 16:40 43.34899 77.01449 2232 ft 3 kts 228°
2026-04-23 16:40 43.34913 77.01464 2250 ft 3 kts 201°
2026-04-23 16:40 43.34930 77.01470 2232 ft 3 kts 160°
2026-04-23 16:41 43.34934 77.01468 2232 ft 0 kts 160°
2026-04-23 16:44 43.34940 77.01465 2232 ft 0 kts 160°
2026-04-23 16:44 43.34942 77.01464 2232 ft 0 kts 160°
2026-04-23 16:44 43.34944 77.01463 2232 ft 0 kts 160°
2026-04-23 16:45 43.34934 77.01468 2232 ft 2 kts 160°
2026-04-23 16:45 43.34924 77.01473 2246 ft 2 kts 160°
2026-04-23 16:45 43.34912 77.01479 2259 ft 2 kts 160°
2026-04-23 16:45 43.34901 77.01484 2240 ft 1 kts 160°
2026-04-23 16:46 43.34895 77.01489 2221 ft 8 kts 156°
2026-04-23 16:46 43.34824 77.01543 2232 ft 13 kts 117°
2026-04-23 16:46 43.34811 77.01711 2229 ft 18 kts 94°
2026-04-23 16:46 43.34804 77.01863 2232 ft 13 kts 94°
2026-04-23 16:47 43.34798 77.01980 2232 ft 12 kts 94°
2026-04-23 16:47 43.34793 77.02090 2231 ft 11 kts 94°
2026-04-23 16:47 43.34787 77.02202 2231 ft 13 kts 94°
2026-04-23 16:47 43.34780 77.02351 2232 ft 16 kts 94°
2026-04-23 16:48 43.34773 77.02501 2233 ft 16 kts 94°
2026-04-23 16:48 43.34804 77.02655 2225 ft 19 kts 57°
2026-04-23 16:48 43.34882 77.02812 2224 ft 21 kts 56°
2026-04-23 16:48 43.34965 77.02979 2227 ft 22 kts 56°
2026-04-23 16:49 43.35021 77.03092 2227 ft 20 kts 56°
2026-04-23 16:49 43.35128 77.03308 2232 ft 21 kts 56°
2026-04-23 16:49 43.35213 77.03481 2233 ft 23 kts 56°
2026-04-23 16:49 43.35305 77.03668 2226 ft 25 kts 56°
2026-04-23 16:50 43.35405 77.03870 2226 ft 27 kts 57°
2026-04-23 16:50 43.35511 77.04082 2226 ft 27 kts 55°
2026-04-23 16:50 43.35619 77.04299 2229 ft 28 kts 56°
2026-04-23 16:50 43.35726 77.04515 2227 ft 25 kts 56°
2026-04-23 16:51 43.35817 77.04700 2227 ft 22 kts 56°
2026-04-23 16:51 43.35908 77.04883 2228 ft 24 kts 55°
2026-04-23 16:51 43.36005 77.05078 2225 ft 25 kts 56°
2026-04-23 16:51 43.36104 77.05279 2228 ft 25 kts 56°
2026-04-23 16:52 43.36204 77.05480 2229 ft 26 kts 56°
2026-04-23 16:52 43.36307 77.05688 2228 ft 26 kts 56°
2026-04-23 16:52 43.36408 77.05890 2227 ft 26 kts 56°
2026-04-23 16:52 43.36507 77.06092 2227 ft 24 kts 56°
2026-04-23 16:53 43.36603 77.06286 2225 ft 25 kts 56°
2026-04-23 16:53 43.36701 77.06483 2233 ft 25 kts 56°
2026-04-23 16:53 43.36801 77.06685 2233 ft 26 kts 53°
2026-04-23 16:53 43.36902 77.06889 2228 ft 25 kts 56°
2026-04-23 16:54 43.37017 77.07007 2226 ft 18 kts 47°
2026-04-23 16:54 43.36996 77.07065 2228 ft 13 kts 204°
2026-04-23 16:54 43.36953 77.06993 2221 ft 0 kts 236°
2026-04-23 16:54 43.36953 77.06992 2221 ft 2 kts 236°
2026-04-23 16:55 43.36822 77.06727 2233 ft 67 kts 236°
2026-04-23 16:55 43.36429 77.05935 2227 ft 135 kts 237°
2026-04-23 16:55 43.35780 77.04624 2230 ft 192 kts 234°
2026-04-23 16:55 43.34997 77.03049 2647 ft 205 kts 236°
2026-04-23 16:56 43.34142 77.01344 3016 ft 228 kts 235°
2026-04-23 16:56 43.33208 76.99509 3557 ft 232 kts 235°
2026-04-23 16:56 43.32326 76.97787 4107 ft 222 kts 236°
2026-04-23 16:56 43.31425 76.96005 4681 ft 233 kts 239°
2026-04-23 16:57 43.30748 76.93907 5106 ft 249 kts 259°
2026-04-23 16:57 43.30881 76.91543 5733 ft 257 kts 291°
2026-04-23 16:57 43.31912 76.89531 6373 ft 269 kts 319°
2026-04-23 16:57 43.33570 76.88302 7218 ft 274 kts 335°
2026-04-23 16:58 43.35346 76.87300 8098 ft 277 kts 335°
2026-04-23 16:58 43.37117 76.86208 8984 ft 280 kts 334°
2026-04-23 16:58 43.38905 76.85124 9899 ft 281 kts 335°
2026-04-23 16:58 43.40708 76.84069 10637 ft 288 kts 335°
2026-04-23 16:59 43.42205 76.83190 10894 ft 305 kts 335°
2026-04-23 16:59 43.43196 76.82605 11042 ft 316 kts 335°
2026-04-23 17:00 43.45153 76.81120 11299 ft 334 kts 319°
2026-04-23 17:00 43.46627 76.78579 11610 ft 350 kts 296°
2026-04-23 17:00 43.47616 76.75466 12151 ft 360 kts 290°
2026-04-23 17:00 43.48532 76.72215 12740 ft 369 kts 289°
2026-04-23 17:01 43.49473 76.68882 13367 ft 377 kts 289°
2026-04-23 17:01 43.50445 76.65493 13985 ft 384 kts 289°
2026-04-23 17:01 43.51443 76.62054 14621 ft 387 kts 289°
2026-04-23 17:01 43.52444 76.58626 15372 ft 386 kts 289°
2026-04-23 17:02 43.53108 76.56356 15883 ft 385 kts 289°
2026-04-23 17:02 43.54441 76.51781 16869 ft 385 kts 290°
2026-04-23 17:02 43.55437 76.48360 17591 ft 385 kts 289°
2026-04-23 17:02 43.56434 76.44931 18273 ft 386 kts 289°
2026-04-23 17:03 43.57434 76.41486 18841 ft 387 kts 289°
2026-04-23 17:03 43.58439 76.38020 19350 ft 390 kts 289°
2026-04-23 17:03 43.59424 76.34519 19850 ft 392 kts 285°
2026-04-23 17:03 43.60043 76.30873 20374 ft 390 kts 275°
2026-04-23 17:04 43.60297 76.27203 20922 ft 389 kts 271°
2026-04-23 17:04 43.60474 76.23468 21417 ft 391 kts 271°
2026-04-23 17:04 43.60640 76.19717 21890 ft 393 kts 270°
2026-04-23 17:04 43.60810 76.15927 22362 ft 394 kts 270°
2026-04-23 17:05 43.60981 76.12149 22819 ft 396 kts 270°
2026-04-23 17:05 43.61155 76.08347 23267 ft 398 kts 270°
2026-04-23 17:05 43.61330 76.04524 23717 ft 399 kts 270°
2026-04-23 17:05 43.61503 76.00739 24062 ft 401 kts 270°
2026-04-23 17:06 43.61677 75.96898 24410 ft 403 kts 270°
2026-04-23 17:06 43.61852 75.93026 24774 ft 404 kts 270°
2026-04-23 17:06 43.62026 75.89144 25057 ft 405 kts 270°
2026-04-23 17:06 43.62199 75.85265 25117 ft 405 kts 270°
2026-04-23 17:07 43.62372 75.81370 25125 ft 406 kts 270°
2026-04-23 17:07 43.62543 75.77474 25143 ft 407 kts 270°
2026-04-23 17:07 43.62713 75.73567 25135 ft 407 kts 270°
2026-04-23 17:07 43.62881 75.69665 25134 ft 407 kts 269°
2026-04-23 17:08 43.63046 75.65818 25133 ft 407 kts 269°
2026-04-23 17:08 43.63133 75.61922 25124 ft 405 kts 265°
2026-04-23 17:08 43.62900 75.58065 25128 ft 402 kts 258°
2026-04-23 17:08 43.62266 75.54311 25126 ft 400 kts 251°
2026-04-23 17:09 43.61238 75.50758 25127 ft 399 kts 243°
2026-04-23 17:09 43.59838 75.47458 25127 ft 399 kts 236°
2026-04-23 17:09 43.58145 75.44413 25125 ft 400 kts 232°
2026-04-23 17:09 43.56340 75.41488 25136 ft 401 kts 230°
2026-04-23 17:10 43.54471 75.38612 25445 ft 403 kts 229°
2026-04-23 17:10 43.52580 75.35752 25860 ft 403 kts 229°
2026-04-23 17:10 43.50689 75.32896 26244 ft 404 kts 229°
2026-04-23 17:10 43.48797 75.30020 26604 ft 405 kts 229°
2026-04-23 17:11 43.46909 75.27133 26921 ft 406 kts 230°
2026-04-23 17:11 43.45024 75.24237 27328 ft 405 kts 229°
2026-04-23 17:11 43.43150 75.21348 27743 ft 404 kts 230°
2026-04-23 17:11 43.41291 75.18476 28169 ft 401 kts 230°
2026-04-23 17:12 43.39438 75.15608 28590 ft 399 kts 230°
2026-04-23 17:12 43.37653 75.12755 29000 ft 397 kts 233°
2026-04-23 17:12 43.36015 75.09720 29453 ft 395 kts 235°
2026-04-23 17:12 43.34425 75.06648 29938 ft 392 kts 236°
2026-04-23 17:13 43.32870 75.03583 30375 ft 389 kts 236°
2026-04-23 17:13 43.31342 75.00536 30807 ft 386 kts 236°
2026-04-23 17:13 43.29825 74.97501 31150 ft 384 kts 236°
2026-04-23 17:13 43.28312 74.94479 31488 ft 383 kts 236°
2026-04-23 17:14 43.26805 74.91473 31841 ft 381 kts 235°
2026-04-23 17:14 43.25304 74.88489 32173 ft 379 kts 235°
2026-04-23 17:14 43.23809 74.85525 32512 ft 377 kts 235°
2026-04-23 17:14 43.22318 74.82573 32832 ft 375 kts 235°
2026-04-23 17:15 43.20834 74.79638 33108 ft 374 kts 235°
2026-04-23 17:15 43.19368 74.76742 33328 ft 374 kts 235°
2026-04-23 17:15 43.17880 74.73806 33566 ft 374 kts 235°
2026-04-23 17:15 43.16396 74.70882 33841 ft 373 kts 235°
2026-04-23 17:16 43.14920 74.67977 34130 ft 371 kts 235°
2026-04-23 17:16 43.13446 74.65078 34360 ft 370 kts 235°
2026-04-23 17:16 43.11975 74.62188 34518 ft 370 kts 235°
2026-04-23 17:16 43.10500 74.59294 34666 ft 370 kts 234°
2026-04-23 17:17 43.09009 74.56421 34806 ft 371 kts 234°
2026-04-23 17:17 43.07479 74.53570 34972 ft 371 kts 232°
2026-04-23 17:17 43.03991 74.48360 35276 ft 371 kts 227°
2026-04-23 17:18 43.00367 74.43380 35539 ft 372 kts 226°
2026-04-23 17:18 42.98527 74.40889 35675 ft 372 kts 226°
2026-04-23 17:18 42.96689 74.38403 35806 ft 372 kts 226°
2026-04-23 17:19 42.94848 74.35911 35908 ft 372 kts 226°
2026-04-23 17:19 42.93009 74.33418 36055 ft 372 kts 226°
2026-04-23 17:19 42.91797 74.31773 36106 ft 373 kts 226°
2026-04-23 17:20 42.87514 74.25959 36135 ft 373 kts 226°
2026-04-23 17:21 42.80783 74.16839 36134 ft 372 kts 226°
2026-04-23 17:21 42.75261 74.09382 36139 ft 372 kts 226°
2026-04-23 17:22 42.69737 74.01942 36126 ft 372 kts 226°
2026-04-23 17:23 42.64233 73.94535 36144 ft 372 kts 226°
2026-04-23 17:24 42.58682 73.87127 36136 ft 375 kts 226°
2026-04-23 17:24 42.53133 73.79703 36138 ft 374 kts 230°
2026-04-23 17:25 42.47582 73.72258 36064 ft 374 kts 227°
2026-04-23 17:26 42.40372 73.62159 36140 ft 370 kts 233°
2026-04-23 17:27 42.36496 73.53203 36140 ft 369 kts 242°
2026-04-23 17:27 42.34188 73.46986 36147 ft 370 kts 243°
2026-04-23 17:28 42.31896 73.40748 36146 ft 370 kts 242°
2026-04-23 17:28 42.29589 73.34532 36153 ft 371 kts 242°
2026-04-23 17:29 42.27260 73.28343 36149 ft 372 kts 241°
2026-04-23 17:30 42.23748 73.19015 36137 ft 371 kts 241°
2026-04-23 17:30 42.20246 73.09730 36142 ft 371 kts 241°
2026-04-23 17:31 42.17900 73.03513 36144 ft 372 kts 241°
2026-04-23 17:31 42.15555 72.97315 36146 ft 371 kts 241°
2026-04-23 17:32 42.13226 72.91161 36122 ft 371 kts 240°
2026-04-23 17:32 42.10871 72.84970 36122 ft 372 kts 241°
2026-04-23 17:33 42.08508 72.78758 36119 ft 372 kts 241°
2026-04-23 17:33 42.06144 72.72569 36131 ft 371 kts 241°
2026-04-23 17:34 42.03780 72.66383 36132 ft 372 kts 241°
2026-04-23 17:35 42.00231 72.57125 36110 ft 372 kts 241°
2026-04-23 17:35 41.96665 72.47846 36116 ft 372 kts 241°
2026-04-23 17:36 41.94291 72.41678 36131 ft 371 kts 241°
2026-04-23 17:36 41.91919 72.35551 36109 ft 371 kts 241°
2026-04-23 17:37 41.89538 72.29393 36144 ft 372 kts 240°
2026-04-23 17:38 41.85972 72.20224 36132 ft 372 kts 240°
2026-04-23 17:38 41.83567 72.14054 36127 ft 372 kts 241°
2026-04-23 17:39 41.81170 72.07899 36125 ft 372 kts 241°
2026-04-23 17:39 41.78790 72.01781 36128 ft 372 kts 241°
2026-04-23 17:40 41.76392 71.95644 36121 ft 371 kts 240°
2026-04-23 17:40 41.73992 71.89531 36159 ft 370 kts 240°
2026-04-23 17:41 41.71576 71.83396 36103 ft 372 kts 240°
2026-04-23 17:41 41.68146 71.74110 36103 ft 372 kts 242°
2026-04-23 17:42 41.64787 71.64755 36108 ft 372 kts 242°
2026-04-23 17:43 41.62529 71.58529 36103 ft 372 kts 242°
2026-04-23 17:43 41.60259 71.52296 36104 ft 373 kts 242°
2026-04-23 17:44 41.57985 71.46071 36097 ft 372 kts 241°
2026-04-23 17:44 41.54579 71.36790 36095 ft 371 kts 242°
2026-04-23 17:45 41.51147 71.27457 36106 ft 375 kts 242°
2026-04-23 17:46 41.47661 71.18150 36106 ft 373 kts 240°
2026-04-23 17:46 41.45238 71.12040 36084 ft 372 kts 240°
2026-04-23 17:47 41.42790 71.05950 36106 ft 372 kts 240°
2026-04-23 17:48 41.39128 70.96805 36116 ft 375 kts 240°
2026-04-23 17:48 41.36693 70.90681 36100 ft 373 kts 240°
2026-04-23 17:49 41.34265 70.84585 36114 ft 374 kts 239°
2026-04-23 17:49 41.31811 70.78469 36103 ft 375 kts 240°
2026-04-23 17:50 41.29356 70.72348 36105 ft 375 kts 240°
2026-04-23 17:50 41.25667 70.63182 36110 ft 375 kts 240°
2026-04-23 17:51 41.23197 70.57069 36111 ft 375 kts 239°
2026-04-23 17:52 41.19503 70.47939 36095 ft 375 kts 240°
2026-04-23 17:52 41.15784 70.38783 36110 ft 375 kts 239°
2026-04-23 17:53 41.12052 70.29639 36119 ft 376 kts 239°
2026-04-23 17:54 41.09841 70.23354 36107 ft 378 kts 248°
2026-04-23 17:54 41.07818 70.13182 36104 ft 382 kts 252°
2026-04-23 17:55 41.06024 70.02925 36107 ft 382 kts 252°
2026-04-23 17:56 41.04808 69.96070 36101 ft 382 kts 252°
2026-04-23 17:56 41.02957 69.85801 36110 ft 383 kts 252°
2026-04-23 17:57 41.01708 69.78916 36084 ft 384 kts 252°
2026-04-23 17:58 40.99833 69.68631 36092 ft 384 kts 252°
2026-04-23 17:58 40.98573 69.61751 36080 ft 384 kts 252°
2026-04-23 17:59 40.97311 69.54881 36079 ft 384 kts 252°
2026-04-23 17:59 40.96041 69.47991 36079 ft 386 kts 252°
2026-04-23 18:00 40.94759 69.41069 36079 ft 387 kts 252°
2026-04-23 18:00 40.93482 69.34182 36078 ft 387 kts 252°
2026-04-23 18:01 40.92195 69.27274 36067 ft 387 kts 252°
2026-04-23 18:01 40.90903 69.20367 36075 ft 387 kts 252°
2026-04-23 18:02 40.89824 69.14621 36068 ft 388 kts 252°
2026-04-23 18:02 40.88297 69.06511 36067 ft 389 kts 252°
2026-04-23 18:03 40.86993 68.99612 36067 ft 389 kts 252°
2026-04-23 18:03 40.85677 68.92672 36064 ft 389 kts 252°
2026-04-23 18:04 40.84358 68.85745 36072 ft 389 kts 252°
2026-04-23 18:04 40.83028 68.78790 36062 ft 391 kts 252°
2026-04-23 18:05 40.81698 68.71854 36059 ft 392 kts 252°
2026-04-23 18:05 40.80391 68.64859 36059 ft 392 kts 253°
2026-04-23 18:06 40.79160 68.57844 36056 ft 392 kts 253°
2026-04-23 18:06 40.78024 68.52064 36068 ft 391 kts 250°
2026-04-23 18:07 40.76451 68.45192 36055 ft 392 kts 249°
2026-04-23 18:07 40.74830 68.38323 36058 ft 392 kts 249°
2026-04-23 18:08 40.73230 68.31482 36052 ft 392 kts 250°
2026-04-23 18:08 40.71637 68.24603 36049 ft 392 kts 251°
2026-04-23 18:09 40.70593 68.17517 36060 ft 395 kts 258°
2026-04-23 18:09 40.69861 68.10305 36051 ft 398 kts 259°
2026-04-23 18:10 40.69188 68.03099 36051 ft 398 kts 259°
2026-04-23 18:10 40.68506 67.95858 36050 ft 398 kts 258°
2026-04-23 18:11 40.67808 67.88630 36052 ft 398 kts 258°
2026-04-23 18:11 40.67101 67.81402 36046 ft 398 kts 258°
2026-04-23 18:12 40.66388 67.74172 36049 ft 398 kts 258°
2026-04-23 18:12 40.65616 67.66961 36039 ft 397 kts 257°
2026-04-23 18:13 40.64732 67.59783 36045 ft 397 kts 257°
2026-04-23 18:13 40.63824 67.52602 36051 ft 397 kts 257°
2026-04-23 18:14 40.62923 67.45420 36045 ft 398 kts 257°
2026-04-23 18:14 40.62030 67.38279 36039 ft 398 kts 257°
2026-04-23 18:15 40.61128 67.31091 36045 ft 398 kts 257°
2026-04-23 18:15 40.60222 67.23901 36044 ft 398 kts 257°
2026-04-23 18:16 40.59311 67.16720 36047 ft 398 kts 257°
2026-04-23 18:16 40.58393 67.09521 36048 ft 399 kts 257°
2026-04-23 18:17 40.57015 66.98776 36053 ft 399 kts 257°
2026-04-23 18:17 40.56084 66.91584 36053 ft 398 kts 256°
2026-04-23 18:18 40.55037 66.84427 36057 ft 398 kts 256°
2026-04-23 18:18 40.53916 66.77302 36050 ft 398 kts 255°
2026-04-23 18:19 40.52789 66.70180 36057 ft 398 kts 255°
2026-04-23 18:19 40.51674 66.63094 36062 ft 399 kts 255°
2026-04-23 18:20 40.50551 66.55948 36311 ft 398 kts 256°
2026-04-23 18:20 40.49989 66.52389 36463 ft 398 kts 255°
2026-04-23 18:20 40.49427 66.48829 36594 ft 398 kts 255°
2026-04-23 18:21 40.48863 66.45257 36699 ft 399 kts 255°
2026-04-23 18:21 40.48299 66.41693 36839 ft 398 kts 255°
2026-04-23 18:21 40.47735 66.38139 37000 ft 397 kts 255°
2026-04-23 18:21 40.47170 66.34587 37142 ft 397 kts 255°
2026-04-23 18:22 40.46605 66.31043 37268 ft 397 kts 255°
2026-04-23 18:22 40.46037 66.27490 37381 ft 397 kts 255°
2026-04-23 18:22 40.44903 66.20423 37539 ft 399 kts 255°
2026-04-23 18:23 40.43186 66.09703 37763 ft 400 kts 256°
2026-04-23 18:24 40.41457 65.98935 37918 ft 402 kts 255°
2026-04-23 18:25 40.39716 65.88155 38056 ft 404 kts 256°
2026-04-23 18:25 40.38543 65.80943 38052 ft 403 kts 255°
2026-04-23 18:26 40.37368 65.73737 38051 ft 403 kts 255°
2026-04-23 18:26 40.36196 65.66584 38047 ft 403 kts 255°
2026-04-23 18:27 40.35012 65.59393 38050 ft 403 kts 255°
2026-04-23 18:27 40.33825 65.52206 38046 ft 403 kts 255°
2026-04-23 18:28 40.32634 65.45018 38036 ft 403 kts 255°
2026-04-23 18:28 40.31441 65.37843 38035 ft 403 kts 255°
2026-04-23 18:29 40.30241 65.30658 38030 ft 403 kts 255°
2026-04-23 18:29 40.29045 65.23525 38024 ft 404 kts 255°
2026-04-23 18:30 40.27832 65.16323 38024 ft 404 kts 255°
2026-04-23 18:30 40.26616 65.09128 38020 ft 404 kts 255°
2026-04-23 18:31 40.25396 65.01938 38023 ft 404 kts 255°
2026-04-23 18:31 40.24172 64.94752 38015 ft 404 kts 255°
2026-04-23 18:32 40.22947 64.87597 38017 ft 405 kts 255°
2026-04-23 18:32 40.21713 64.80411 38014 ft 405 kts 255°
2026-04-23 18:33 40.20472 64.73211 38012 ft 405 kts 255°
2026-04-23 18:33 40.19228 64.66027 38009 ft 405 kts 255°
2026-04-23 18:34 40.17980 64.58847 38006 ft 405 kts 255°
2026-04-23 18:34 40.16729 64.51674 38008 ft 405 kts 255°
2026-04-23 18:35 40.15471 64.44493 38003 ft 405 kts 255°
2026-04-23 18:35 40.14211 64.37326 38005 ft 404 kts 255°
2026-04-23 18:36 40.12954 64.30210 38000 ft 405 kts 255°
2026-04-23 18:36 40.11684 64.23044 38000 ft 405 kts 255°
2026-04-23 18:37 40.10408 64.15867 37997 ft 405 kts 255°
2026-04-23 18:37 40.09128 64.08700 38000 ft 405 kts 255°
2026-04-23 18:38 40.07842 64.01530 37996 ft 405 kts 255°
2026-04-23 18:38 40.06565 63.94428 37998 ft 405 kts 255°
2026-04-23 18:39 40.05272 63.87268 37995 ft 404 kts 255°
2026-04-23 18:39 40.03976 63.80123 37990 ft 404 kts 255°
2026-04-23 18:40 40.02677 63.72983 37995 ft 404 kts 255°
2026-04-23 18:40 40.01372 63.65836 37990 ft 405 kts 255°
2026-04-23 18:41 40.00065 63.58697 37988 ft 405 kts 255°
2026-04-23 18:41 39.98755 63.51561 37987 ft 404 kts 255°
2026-04-23 18:42 39.97440 63.44429 37988 ft 404 kts 255°
2026-04-23 18:42 39.96131 63.37354 37988 ft 405 kts 255°
2026-04-23 18:43 39.94805 63.30215 37987 ft 405 kts 255°
2026-04-23 18:43 39.93475 63.23082 37985 ft 405 kts 255°
2026-04-23 18:44 39.92160 63.16049 37986 ft 405 kts 255°
2026-04-23 18:44 39.90824 63.08935 37982 ft 405 kts 255°
2026-04-23 18:45 39.89482 63.01816 37984 ft 405 kts 255°
2026-04-23 18:45 39.88136 62.94700 37977 ft 405 kts 255°
2026-04-23 18:46 39.86786 62.87589 37976 ft 405 kts 255°
2026-04-23 18:46 39.85439 62.80516 37979 ft 405 kts 255°
2026-04-23 18:47 39.84515 62.73289 37978 ft 406 kts 266°
2026-04-23 18:47 39.84524 62.65925 37980 ft 408 kts 269°
2026-04-23 18:48 39.84718 62.58543 37978 ft 408 kts 269°
2026-04-23 18:48 39.84936 62.51154 37974 ft 408 kts 269°
2026-04-23 18:49 39.85133 62.43787 37975 ft 408 kts 269°
2026-04-23 18:49 39.85313 62.36415 37974 ft 407 kts 269°
2026-04-23 18:50 39.85455 62.30288 37974 ft 407 kts 269°
2026-04-23 18:50 39.85649 62.21721 37977 ft 407 kts 269°
2026-04-23 18:51 39.85812 62.14351 37974 ft 407 kts 269°
2026-04-23 18:51 39.85970 62.06991 37974 ft 407 kts 269°
2026-04-23 18:52 39.86123 61.99623 37971 ft 407 kts 269°
2026-04-23 18:52 39.86272 61.92257 37976 ft 407 kts 269°
2026-04-23 18:53 39.86416 61.84894 37969 ft 407 kts 269°
2026-04-23 18:53 39.86555 61.77547 37968 ft 407 kts 269°
2026-04-23 18:54 39.86689 61.70218 37968 ft 407 kts 269°
2026-04-23 18:54 39.86819 61.62858 37968 ft 406 kts 269°
2026-04-23 18:55 39.86944 61.55506 37967 ft 406 kts 269°
2026-04-23 18:55 39.87045 61.49387 37965 ft 406 kts 269°
2026-04-23 18:56 39.87162 61.42031 37962 ft 406 kts 269°
2026-04-23 18:56 39.87294 61.34665 37964 ft 406 kts 269°
2026-04-23 18:57 39.87476 61.27311 37962 ft 406 kts 269°
2026-04-23 18:57 39.87664 61.19961 37977 ft 406 kts 269°
2026-04-23 18:58 39.87843 61.12613 37959 ft 406 kts 269°
2026-04-23 18:58 39.88012 61.05311 37955 ft 406 kts 269°
2026-04-23 18:59 39.88177 60.97958 37956 ft 406 kts 269°
2026-04-23 18:59 39.88337 60.90595 37952 ft 406 kts 269°
2026-04-23 19:00 39.88493 60.83237 37952 ft 406 kts 269°
2026-04-23 19:00 39.88644 60.75878 37957 ft 406 kts 269°
2026-04-23 19:01 39.88790 60.68531 37955 ft 406 kts 269°
2026-04-23 19:01 39.88932 60.61175 37958 ft 406 kts 269°
2026-04-23 19:02 39.89069 60.53819 37953 ft 406 kts 269°
2026-04-23 19:02 39.89201 60.46505 37958 ft 406 kts 269°
2026-04-23 19:03 39.89329 60.39145 37943 ft 407 kts 269°
2026-04-23 19:03 39.89452 60.31780 37951 ft 406 kts 269°
2026-04-23 19:04 39.89558 60.24415 37945 ft 406 kts 268°
2026-04-23 19:04 39.89633 60.17099 37950 ft 406 kts 268°
2026-04-23 19:05 39.89702 60.09745 37942 ft 406 kts 268°
2026-04-23 19:05 39.89768 60.02381 37955 ft 406 kts 268°
2026-04-23 19:06 39.89831 59.95020 37937 ft 406 kts 268°
2026-04-23 19:06 39.89890 59.87663 37949 ft 406 kts 268°
2026-04-23 19:07 39.89944 59.80317 37941 ft 406 kts 268°
2026-04-23 19:07 39.89993 59.72959 37943 ft 406 kts 268°
2026-04-23 19:08 39.90038 59.65659 37944 ft 406 kts 268°
2026-04-23 19:08 39.90078 59.58304 37947 ft 406 kts 268°
2026-04-23 19:09 39.90114 59.50963 37939 ft 405 kts 268°
2026-04-23 19:09 39.90145 59.43626 37941 ft 405 kts 268°
2026-04-23 19:10 39.90170 59.36300 37944 ft 405 kts 267°
2026-04-23 19:10 39.90180 59.28968 37942 ft 405 kts 267°
2026-04-23 19:11 39.90180 59.21682 37940 ft 404 kts 267°
2026-04-23 19:11 39.90175 59.14348 37933 ft 405 kts 267°
2026-04-23 19:12 39.90168 59.08202 37940 ft 405 kts 267°
2026-04-23 19:12 39.90142 58.99673 37933 ft 405 kts 267°
2026-04-23 19:13 39.90110 58.92336 37929 ft 405 kts 267°
2026-04-23 19:13 39.90075 58.85034 37929 ft 405 kts 267°
2026-04-23 19:14 39.90036 58.77689 37927 ft 405 kts 267°
2026-04-23 19:14 39.89992 58.70350 37930 ft 405 kts 267°
2026-04-23 19:15 39.89944 58.63019 37929 ft 405 kts 267°
2026-04-23 19:15 39.89891 58.55686 37934 ft 405 kts 266°
2026-04-23 19:16 39.89834 58.48354 37925 ft 405 kts 266°
2026-04-23 19:16 39.89771 58.41022 37917 ft 405 kts 266°
2026-04-23 19:17 39.89670 58.30019 37914 ft 405 kts 266°
2026-04-23 19:17 39.89596 58.22728 37911 ft 405 kts 266°
2026-04-23 19:18 39.89521 58.15401 37914 ft 405 kts 266°
2026-04-23 19:18 39.89459 58.08081 37908 ft 404 kts 266°
2026-04-23 19:19 39.89370 57.97092 37903 ft 404 kts 266°
2026-04-23 19:20 39.89267 57.86116 37900 ft 404 kts 266°
2026-04-23 19:20 39.89192 57.78845 37900 ft 404 kts 266°
2026-04-23 19:21 39.89070 57.67874 37897 ft 404 kts 266°
2026-04-23 19:22 39.88984 57.60567 37897 ft 403 kts 266°
2026-04-23 19:22 39.88845 57.49606 37894 ft 403 kts 266°
2026-04-23 19:23 39.88747 57.42312 37892 ft 403 kts 266°
2026-04-23 19:24 39.88593 57.31418 37889 ft 402 kts 266°
2026-04-23 19:24 39.88427 57.20495 37891 ft 402 kts 266°
2026-04-23 19:25 39.88191 57.05932 37891 ft 402 kts 266°
2026-04-23 19:26 39.88002 56.95008 37887 ft 402 kts 266°
2026-04-23 19:27 39.87665 56.76891 37884 ft 401 kts 266°
2026-04-23 19:28 39.87374 56.62342 37871 ft 402 kts 266°
2026-04-23 19:29 39.87145 56.51465 37878 ft 402 kts 266°
2026-04-23 19:30 39.86904 56.40527 37874 ft 402 kts 266°
2026-04-23 19:31 39.86654 56.29596 37868 ft 402 kts 265°
2026-04-23 19:31 39.86481 56.22305 37878 ft 402 kts 265°
2026-04-23 19:32 39.86309 56.15022 37870 ft 402 kts 266°
2026-04-23 19:32 39.86135 56.07785 37866 ft 401 kts 266°
2026-04-23 19:33 39.85956 56.00524 37874 ft 401 kts 266°
2026-04-23 19:33 39.85678 55.89632 37866 ft 401 kts 265°
2026-04-23 19:34 39.85489 55.82425 37862 ft 401 kts 265°
2026-04-23 19:35 39.85194 55.71531 37866 ft 401 kts 265°
2026-04-23 19:35 39.84993 55.64280 37872 ft 401 kts 265°
2026-04-23 19:36 39.84786 55.57022 37868 ft 401 kts 265°
2026-04-23 19:36 39.84575 55.49766 37867 ft 401 kts 265°
2026-04-23 19:37 39.84360 55.42517 37865 ft 401 kts 265°
2026-04-23 19:37 39.84140 55.35277 37865 ft 400 kts 265°
2026-04-23 19:38 39.83917 55.28077 37861 ft 400 kts 265°
2026-04-23 19:38 39.83688 55.20841 37855 ft 400 kts 265°
2026-04-23 19:39 39.83456 55.13610 37866 ft 400 kts 265°
2026-04-23 19:39 39.83218 55.06371 37859 ft 400 kts 265°
2026-04-23 19:40 39.82998 54.99137 37858 ft 400 kts 266°
2026-04-23 19:40 39.82791 54.91884 37865 ft 400 kts 266°
2026-04-23 19:41 39.82584 54.84699 37864 ft 400 kts 265°
2026-04-23 19:41 39.82455 54.78636 37874 ft 401 kts 270°
2026-04-23 19:42 39.83582 54.70282 37871 ft 406 kts 281°
2026-04-23 19:42 39.85058 54.63165 37867 ft 407 kts 282°
2026-04-23 19:43 39.86602 54.56083 37868 ft 406 kts 282°
2026-04-23 19:43 39.88129 54.49002 37867 ft 406 kts 282°
2026-04-23 19:44 39.89314 54.41851 37869 ft 403 kts 276°
2026-04-23 19:44 39.90030 54.35861 37863 ft 403 kts 275°
2026-04-23 19:45 39.90814 54.28644 37861 ft 402 kts 275°
2026-04-23 19:45 39.91584 54.21423 37857 ft 402 kts 275°
2026-04-23 19:46 39.92361 54.14199 37859 ft 402 kts 275°
2026-04-23 19:46 39.93134 54.07025 37854 ft 401 kts 275°
2026-04-23 19:47 39.93906 53.99831 37847 ft 401 kts 275°
2026-04-23 19:47 39.94675 53.92614 37847 ft 402 kts 275°
2026-04-23 19:48 39.95441 53.85385 37845 ft 402 kts 275°
2026-04-23 19:48 39.96197 53.78206 37844 ft 402 kts 275°
2026-04-23 19:49 39.96952 53.70989 37845 ft 402 kts 275°
2026-04-23 19:49 39.97704 53.63761 37845 ft 402 kts 275°
2026-04-23 19:50 39.98450 53.56542 37849 ft 402 kts 275°
2026-04-23 19:50 39.99195 53.49290 37845 ft 403 kts 275°
2026-04-23 19:51 39.99929 53.42099 37844 ft 403 kts 275°
2026-04-23 19:51 40.00663 53.34859 37850 ft 402 kts 275°
2026-04-23 19:52 40.01393 53.27624 37855 ft 402 kts 275°
2026-04-23 19:52 40.02117 53.20386 37854 ft 402 kts 275°
2026-04-23 19:53 40.02840 53.13124 37853 ft 403 kts 275°
2026-04-23 19:53 40.03553 53.05908 37856 ft 404 kts 275°
2026-04-23 19:54 40.04014 52.98636 37857 ft 401 kts 268°
2026-04-23 19:54 40.03882 52.91349 37858 ft 401 kts 265°
2026-04-23 19:55 40.03622 52.84084 37856 ft 401 kts 265°
2026-04-23 19:55 40.03380 52.76801 37845 ft 401 kts 266°
2026-04-23 19:56 40.03166 52.69575 37849 ft 401 kts 266°
2026-04-23 19:56 40.02958 52.62278 37851 ft 402 kts 266°
2026-04-23 19:57 40.02747 52.54976 37849 ft 403 kts 266°
2026-04-23 19:57 40.02529 52.47674 37848 ft 403 kts 266°
2026-04-23 19:58 40.02307 52.40377 37848 ft 403 kts 266°
2026-04-23 19:58 40.02079 52.33086 37848 ft 401 kts 266°
2026-04-23 19:59 40.01848 52.25815 37848 ft 401 kts 266°
2026-04-23 19:59 40.01612 52.18543 37851 ft 401 kts 266°
2026-04-23 20:00 40.01373 52.11332 37848 ft 401 kts 266°
2026-04-23 20:00 40.01128 52.04048 37668 ft 400 kts 266°
2026-04-23 20:00 40.01004 52.00427 37023 ft 401 kts 266°
2026-04-23 20:01 40.00879 51.96789 36342 ft 401 kts 266°
2026-04-23 20:01 40.00752 51.93165 35740 ft 398 kts 266°
2026-04-23 20:01 40.00626 51.89561 35157 ft 396 kts 267°
2026-04-23 20:01 40.00499 51.85983 34542 ft 395 kts 267°
2026-04-23 20:02 40.00371 51.82402 33890 ft 396 kts 268°
2026-04-23 20:02 40.00241 51.78810 33141 ft 398 kts 268°
2026-04-23 20:02 40.00110 51.75187 32379 ft 400 kts 268°
2026-04-23 20:02 39.99977 51.71558 31654 ft 402 kts 268°
2026-04-23 20:03 39.99843 51.67899 30905 ft 406 kts 268°
2026-04-23 20:03 39.99707 51.64257 30182 ft 409 kts 268°
2026-04-23 20:03 39.99567 51.60525 29365 ft 412 kts 268°
2026-04-23 20:03 39.99426 51.56769 28512 ft 415 kts 268°
2026-04-23 20:04 39.99339 51.52996 27719 ft 418 kts 272°
2026-04-23 20:04 39.99736 51.49243 26896 ft 419 kts 283°
2026-04-23 20:04 40.00679 51.45659 26094 ft 418 kts 290°
2026-04-23 20:04 40.01798 51.42175 25289 ft 416 kts 291°
2026-04-23 20:05 40.02954 51.38722 24514 ft 414 kts 291°
2026-04-23 20:05 40.04111 51.35293 23766 ft 411 kts 291°
2026-04-23 20:05 40.05261 51.31888 22956 ft 409 kts 291°
2026-04-23 20:05 40.06390 51.28540 22110 ft 407 kts 291°
2026-04-23 20:06 40.07525 51.25170 21274 ft 404 kts 291°
2026-04-23 20:06 40.08650 51.21826 20464 ft 401 kts 291°
2026-04-23 20:06 40.09767 51.18502 19675 ft 398 kts 291°
2026-04-23 20:06 40.10873 51.15207 18908 ft 394 kts 291°
2026-04-23 20:07 40.11969 51.11938 18169 ft 391 kts 291°
2026-04-23 20:07 40.13057 51.08688 17311 ft 388 kts 291°
2026-04-23 20:07 40.14134 51.05467 16478 ft 385 kts 291°
2026-04-23 20:07 40.15199 51.02280 15681 ft 381 kts 290°
2026-04-23 20:08 40.16255 50.99117 14892 ft 377 kts 290°
2026-04-23 20:08 40.17281 50.96043 14128 ft 361 kts 290°
2026-04-23 20:08 40.18268 50.93084 13348 ft 350 kts 290°
2026-04-23 20:08 40.19232 50.90180 12512 ft 346 kts 290°
2026-04-23 20:09 40.20183 50.87299 11698 ft 342 kts 289°
2026-04-23 20:09 40.20881 50.84364 11042 ft 336 kts 278°
2026-04-23 20:09 40.21209 50.81339 10849 ft 335 kts 275°
2026-04-23 20:09 40.21456 50.78321 10841 ft 333 kts 274°
2026-04-23 20:10 40.21612 50.76327 10829 ft 332 kts 274°
2026-04-23 20:10 40.21915 50.72458 10138 ft 312 kts 274°
2026-04-23 20:10 40.22131 50.69730 9740 ft 290 kts 274°
2026-04-23 20:10 40.22332 50.67193 9322 ft 272 kts 274°
2026-04-23 20:11 40.22522 50.64772 8672 ft 264 kts 273°
2026-04-23 20:11 40.22706 50.62400 8180 ft 261 kts 273°
2026-04-23 20:11 40.22891 50.60020 8026 ft 264 kts 273°
2026-04-23 20:11 40.23076 50.57632 8010 ft 264 kts 272°
2026-04-23 20:12 40.23263 50.55241 8007 ft 264 kts 272°
2026-04-23 20:12 40.23334 50.52859 8004 ft 261 kts 263°
2026-04-23 20:12 40.22932 50.50562 8008 ft 259 kts 246°
2026-04-23 20:12 40.22070 50.48504 8003 ft 259 kts 237°
2026-04-23 20:13 40.21074 50.46547 8001 ft 259 kts 236°
2026-04-23 20:13 40.20055 50.44601 8000 ft 259 kts 236°
2026-04-23 20:13 40.19038 50.42653 8001 ft 258 kts 236°
2026-04-23 20:13 40.18067 50.40785 7987 ft 238 kts 236°
2026-04-23 20:14 40.17170 50.39053 7989 ft 224 kts 236°
2026-04-23 20:14 40.16304 50.37379 8004 ft 222 kts 236°
2026-04-23 20:14 40.15438 50.35703 8004 ft 223 kts 236°
2026-04-23 20:14 40.14571 50.34023 8004 ft 223 kts 236°
2026-04-23 20:15 40.13705 50.32346 8001 ft 223 kts 236°
2026-04-23 20:15 40.12838 50.30667 8003 ft 223 kts 236°
2026-04-23 20:15 40.11981 50.29004 8006 ft 223 kts 236°
2026-04-23 20:15 40.11118 50.27326 8006 ft 223 kts 236°
2026-04-23 20:16 40.10253 50.25647 8006 ft 223 kts 236°
2026-04-23 20:16 40.09390 50.23969 8006 ft 222 kts 236°
2026-04-23 20:16 40.08528 50.22282 7990 ft 224 kts 239°
2026-04-23 20:16 40.07877 50.20371 8004 ft 233 kts 255°
2026-04-23 20:17 40.07726 50.18300 7997 ft 225 kts 269°
2026-04-23 20:17 40.07829 50.16280 8001 ft 222 kts 272°
2026-04-23 20:17 40.07989 50.14269 8006 ft 222 kts 273°
2026-04-23 20:17 40.08163 50.12261 8007 ft 222 kts 273°
2026-04-23 20:18 40.08342 50.10257 8006 ft 222 kts 273°
2026-04-23 20:18 40.08520 50.08276 8003 ft 222 kts 273°
2026-04-23 20:18 40.08700 50.06272 8007 ft 222 kts 273°
2026-04-23 20:18 40.08880 50.04265 8004 ft 222 kts 273°
2026-04-23 20:19 40.09060 50.02257 8002 ft 222 kts 273°
2026-04-23 20:19 40.09239 50.00248 8003 ft 222 kts 273°
2026-04-23 20:19 40.09419 49.98242 8004 ft 222 kts 273°
2026-04-23 20:19 40.09598 49.96237 8001 ft 222 kts 273°
2026-04-23 20:20 40.09896 49.94252 7992 ft 225 kts 287°
2026-04-23 20:20 40.10741 49.92516 7969 ft 232 kts 312°
2026-04-23 20:20 40.12152 49.91466 7540 ft 246 kts 342°
2026-04-23 20:20 40.13897 49.91589 7003 ft 261 kts 20°
2026-04-23 20:21 40.15485 49.92750 6625 ft 263 kts 33°
2026-04-23 20:21 40.16986 49.94140 6186 ft 265 kts 35°
2026-04-23 20:21 40.18482 49.95554 5748 ft 267 kts 36°
2026-04-23 20:21 40.20002 49.96973 5278 ft 270 kts 36°
2026-04-23 20:22 40.21534 49.98387 4775 ft 269 kts 36°
2026-04-23 20:22 40.23073 49.99795 4265 ft 272 kts 36°
2026-04-23 20:22 40.24634 50.01219 3775 ft 274 kts 36°
2026-04-23 20:22 40.26198 50.02641 3281 ft 274 kts 37°
2026-04-23 20:23 40.27760 50.04061 2790 ft 272 kts 37°
2026-04-23 20:23 40.29311 50.05467 2278 ft 268 kts 35°
2026-04-23 20:23 40.30967 50.06478 1934 ft 259 kts 13°
2026-04-23 20:23 40.32686 50.06631 1936 ft 235 kts 355°
2026-04-23 20:24 40.34281 50.06492 1983 ft 227 kts 356°
2026-04-23 20:24 40.35789 50.06460 1973 ft 205 kts 359°
2026-04-23 20:24 40.37143 50.06453 1751 ft 189 kts 359°
2026-04-23 20:24 40.38415 50.06434 1485 ft 176 kts 359°
2026-04-23 20:25 40.39617 50.06414 1242 ft 170 kts 359°
2026-04-23 20:25 40.40782 50.06397 1014 ft 165 kts
2026-04-23 20:25 40.41900 50.06379 803 ft 154 kts 359°
2026-04-23 20:25 40.42910 50.06364 621 ft 137 kts 359°
2026-04-23 20:26 40.43834 50.06348 382 ft 130 kts 359°
2026-04-23 20:26 40.44731 50.06338 226 ft 129 kts 360°
2026-04-23 20:26 40.45624 50.06326 54 ft 128 kts 358°
2026-04-23 20:26 40.46470 50.06313 17 ft 104 kts 360°
2026-04-23 20:27 40.47013 50.06304 15 ft 52 kts 359°
2026-04-23 20:27 40.47197 50.06300 13 ft 7 kts 359°
2026-04-23 20:27 40.47318 50.06294 13 ft 26 kts 354°
2026-04-23 20:27 40.47495 50.06218 14 ft 19 kts 332°
2026-04-23 20:28 40.47574 50.06125 18 ft 9 kts 265°
2026-04-23 20:28 40.47501 50.06083 17 ft 18 kts 180°
2026-04-23 20:28 40.47365 50.06085 17 ft 18 kts 179°
2026-04-23 20:28 40.47245 50.06086 17 ft 18 kts 179°
2026-04-23 20:29 40.47118 50.06088 17 ft 19 kts 179°
2026-04-23 20:29 40.46998 50.06090 17 ft 10 kts 180°
2026-04-23 20:29 40.46945 50.06046 19 ft 8 kts 258°
2026-04-23 20:29 40.46944 50.05975 18 ft 12 kts 268°
2026-04-23 20:30 40.46940 50.05834 18 ft 17 kts 268°
2026-04-23 20:30 40.46933 50.05547 18 ft 17 kts 267°
2026-04-23 20:30 40.46919 50.05422 18 ft 12 kts 242°
2026-04-23 20:31 40.46866 50.05389 19 ft 11 kts 179°
2026-04-23 20:31 40.46774 50.05407 18 ft 16 kts 157°
2026-04-23 20:31 40.46682 50.05466 18 ft 10 kts 151°
2026-04-23 20:31 40.46642 50.05470 18 ft 6 kts 219°
2026-04-23 20:32 40.46635 50.05438 18 ft 3 kts 263°
2026-04-23 20:32 40.46633 50.05406 18 ft 3 kts 267°
2026-04-23 20:32 40.46633 50.05391 18 ft 0 kts 268°